[[{"header":{"parameterUnit":"m.s-1","parameterCategory":1,"la1":30.2991,"la2":30.254,"lo1":-89.0895,"lo2":-89.0444,"dy":0.0017,"dx":0.0017,"nx":28,"ny":28,"refTime":"2025-04-03T09:00:00:Z","depth":0,"parameterNumber":2,"parameterNumberName":"U-component_of_WINDS"},"data":[0,0,0,0,0,0,0,0,0,0,0,0,0,0,0,0,0,0,0,0,0,0,0,0,0,0,0,0,0,0,0,0,0,0,0,0,0,0,0,0,0,0,0,0,0,0,0,0,0,0,0,0,0,0,0,0,0,0,-4.0959,-4.096,0,-4.1092,-4.1094,-4.1095,-4.1109,-4.1108,-4.1107,-4.1105,-4.1241,-4.1246,-4.1251,0,0,0,0,0,0,0,0,0,0,0,0,0,-4.0717,-4.0721,-4.0959,-4.0961,-4.0962,-4.1092,-4.1094,-4.1096,-4.111,-4.1108,-4.1106,-4.1105,-4.1239,-4.1245,-4.1251,0,0,0,0,0,0,0,0,0,0,0,0,0,-4.0833,-4.0723,-4.0959,-4.0985,-4.0988,-4.1092,-4.1094,-4.1096,-4.111,-4.1108,-4.1106,-4.1104,-4.1238,-4.1245,-4.1252,-4.1338,0,0,-4.1274,-4.1277,0,0,0,0,0,0,0,0,-4.0827,-4.0842,-4.0979,-4.0983,-4.0987,-4.1082,-4.1058,-4.1177,-4.111,-4.1064,-4.1105,-4.1103,-4.119,-4.1201,-4.123,-4.1344,-4.135,-4.1275,-4.1279,-4.1283,-4.1285,0,0,0,0,0,0,0,-4.0818,-4.0836,-4.1012,-4.0981,-4.0986,-4.099,-4.1004,-4.1081,-4.1137,-4.1068,-4.1069,-4.1085,-4.1192,-4.1223,-4.1234,-4.1352,-4.1275,-4.1281,-4.1286,-4.1289,-4.1544,-4.1546,0,0,0,0,0,0,-4.0806,-4.083,-4.1007,-4.1016,-4.09,-4.0996,-4.1012,-4.1054,-4.1136,-4.1146,-4.1086,-4.1085,-4.1212,-4.1225,-4.1238,-4.1345,-4.1282,-4.1289,-4.1294,-4.1542,-4.1545,-4.1547,0,0,0,0,0,0,-4.08,-4.0821,-4.1002,-4.0923,-4.0946,-4.1002,-4.1049,-4.1057,-4.1089,-4.115,-4.116,-4.1108,-4.1211,-4.1228,-4.1313,-4.1349,-4.1293,-4.1299,-4.1539,-4.1543,-4.1546,-4.1557,0,0,0,0,0,0,-4.0793,-4.0819,-4.0852,-4.0924,-4.0951,-4.1074,-4.1051,-4.1062,-4.1102,-4.1101,-4.1173,-4.1183,-4.121,-4.1302,-4.1321,-4.1359,-4.1305,-4.1536,-4.1541,-4.1545,-4.1554,-4.1561,-4.1567,0,0,0,0,0,-4.0785,-4.085,-4.0854,-4.0875,-4.0993,-4.1076,-4.1092,-4.1122,-4.1105,-4.1138,-4.1178,-4.1181,-4.1343,-4.1311,-4.1332,-4.1372,-4.1534,-4.1539,-4.1545,-4.1551,-4.1559,-4.1567,0,0,0,0,0,0,-4.078,-4.0859,-4.0865,-4.0955,-4.1009,-4.1079,-4.1122,-4.113,-4.119,-4.1186,-4.1222,-4.1238,-4.1321,-4.1356,-4.1319,-4.146,-4.1437,-4.1446,-4.1434,-4.1443,-4.1449,-4.1439,-4.1311,0,0,0,0,0,-4.079,-4.0851,-4.0917,-4.0991,-4.1017,-4.1065,-4.1103,-4.1122,-4.1179,-4.1201,-4.1247,-4.1302,-4.1366,-4.1407,-4.1468,-4.156,-4.1576,-4.1598,-4.1604,-4.1609,-4.1617,-4.1668,-4.1679,-4.1565,-4.1565,-4.1565,0,0,-4.081,-4.0861,-4.0898,-4.0991,-4.1035,-4.1098,-4.1084,-4.1151,-4.1198,-4.1211,-4.1294,-4.133,-4.1394,-4.1483,-4.1524,-4.1514,-4.1652,-4.1616,-4.162,-4.1625,-4.1675,-4.1686,-4.1695,-4.1569,-4.1568,-4.1567,0,0,-4.0879,-4.0924,-4.099,-4.1035,-4.1102,-4.1134,-4.115,-4.1219,-4.1243,-4.1327,-4.1339,-4.1396,-4.1504,-4.1549,-4.1587,-4.1675,-4.168,-4.1694,-4.1727,-4.1777,-4.1786,-4.1794,-4.1825,-4.1836,-4.1702,-4.1702,-4.1702,0,-4.0896,-4.099,-4.1023,-4.109,-4.1131,-4.1147,-4.1214,-4.1256,-4.134,-4.1368,-4.1356,-4.1493,-4.1537,-4.1637,-4.1659,-4.1689,-4.1708,-4.1685,-4.1782,-4.179,-4.1798,-4.1828,-4.184,-4.1703,-4.1703,-4.1703,-4.1703,0,-4.1008,-4.1073,-4.1119,-4.12,-4.1246,-4.1313,-4.1355,-4.1399,-4.1414,-4.1447,-4.1533,-4.1587,-4.1661,-4.1686,-4.1702,-4.1789,-4.178,-4.1775,-4.1751,-4.181,-4.1839,-4.185,-4.1705,-4.1705,-4.1704,-4.1704,0,0,-4.1075,-4.1175,-4.1191,-4.1228,-4.1304,-4.1356,-4.1424,-4.1496,-4.1532,-4.159,-4.1648,-4.174,-4.1736,-4.1778,-4.18,-4.1843,-4.191,-4.1833,-4.1835,-4.1844,-4.2008,-4.2011,-4.2024,-4.1914,-4.1917,-4.1919,-4.2003,0,-4.1152,-4.1273,-4.1305,-4.1408,-4.1469,-4.1487,-4.1547,-4.16,-4.1633,-4.169,-4.1727,-4.1792,-4.1782,-4.1807,-4.1852,-4.1892,-4.1943,-4.1887,-4.1968,-4.197,-4.195,-4.2039,-4.2042,-4.2119,-4.2014,-4.2016,-4.2018,0,-4.1257,-4.1318,-4.1427,-4.1496,-4.1523,-4.1576,-4.1645,-4.1699,-4.1761,-4.1782,-4.183,-4.1848,-4.192,-4.1894,-4.1994,-4.1955,-4.199,-4.2015,-4.2019,-4.2027,-4.1996,-4.2048,-4.2144,-4.2155,-4.2036,-4.2034,-4.2033,0,-4.1295,-4.1404,-4.1483,-4.1515,-4.1598,-4.1634,-4.167,-4.173,-4.1772,-4.1832,-4.186,-4.1928,-4.1965,-4.2018,-4.2054,-4.2032,-4.2151,-4.2128,-4.217,-4.2169,-4.2193,-4.219,-4.2295,-4.2218,-4.2218,-4.2217,-4.2217,0,-4.1376,-4.1442,-4.1501,-4.155,-4.1625,-4.1662,-4.1735,-4.1771,-4.1825,-4.1881,-4.1901,-4.1954,-4.1998,-4.2057,-4.2086,-4.2164,-4.2181,-4.22,-4.2206,-4.2197,-4.2195,-4.222,-4.2215,-4.222,-4.222,-4.2219,-4.2219,0,-4.143,-4.1472,-4.156,-4.1632,-4.1652,-4.1703,-4.1765,-4.1813,-4.1848,-4.1919,-4.1938,-4.1993,-4.2063,-4.2105,-4.2193,-4.2213,-4.2299,-4.2304,-4.2278,-4.2281,-4.232,-4.2316,-4.2443,-4.2462,-4.2373,-4.2374,-4.2375,0,-4.1478,-4.153,-4.1607,-4.1647,-4.1684,-4.1747,-4.179,-4.1829,-4.1873,-4.1947,-4.1987,-4.2059,-4.2118,-4.223,-4.2277,-4.2346,-4.2352,-4.2392,-4.2362,-4.2351,-4.2351,-4.2347,-4.2353,-4.2396,-4.2397,-4.2397,-4.2398,0,-4.156,-4.1579,-4.164,-4.1709,-4.176,-4.1816,-4.1872,-4.1903,-4.1951,-4.2,-4.2072,-4.2119,-4.221,-4.2281,-4.2354,-4.2391,-4.2403,-4.2407,-4.2421,-4.2411,-4.2394,-4.2403,-4.2291,-4.2404,-4.2403,-4.2403,-4.2402,-4.2402,-4.1612,-4.1659,-4.1721,-4.1789,-4.1835,-4.1887,-4.1936,-4.1978,-4.2039,-4.2116,-4.2136,-4.2212,-4.2273,-4.2372,-4.2412,-4.2472,-4.2465,-4.2484,-4.2489,-4.2493,-4.2494,-4.2385,-4.2485,-4.2485,-4.2485,-4.2485,-4.2485,0,-4.1694,-4.1736,-4.1798,-4.1875,-4.1929,-4.1936,-4.1999,-4.2043,-4.211,-4.2166,-4.2224,-4.2308,-4.2378,-4.2431,-4.2503,-4.2541,-4.2548,-4.2558,-4.2555,-4.2563,-4.2496,-4.2477,-4.2551,-4.2551,-4.2551,-4.2551,-4.2551,-4.2551,-4.1743,-4.1822,-4.1849,-4.1951,-4.1992,-4.2067,-4.2102,-4.2151,-4.2196,-4.2288,-4.2346,-4.2381,-4.2437,-4.2513,-4.2577,-4.2591,-4.2616,-4.2625,-4.264,-4.2575,-4.2568,-4.2561,-4.2544,-4.263,-4.263,-4.2702,-4.2703,-4.2703]},{"header":{"parameterUnit":"m.s-1","parameterCategory":1,"la1":30.2991,"la2":30.254,"lo1":-89.0895,"lo2":-89.0444,"dy":0.0017,"dx":0.0017,"nx":28,"ny":28,"refTime":"2025-04-03T09:00:00:Z","depth":0,"parameterNumber":3,"parameterNumberName":"V-component_of_WINDS"},"data":[0,0,0,0,0,0,0,0,0,0,0,0,0,0,0,0,0,0,0,0,0,0,0,0,0,0,0,0,0,0,0,0,0,0,0,0,0,0,0,0,0,0,0,0,0,0,0,0,0,0,0,0,0,0,0,0,0,0,5.9148,5.9149,0,5.9201,5.9201,5.9202,5.9168,5.9167,5.9165,5.9164,5.9216,5.9218,5.9221,0,0,0,0,0,0,0,0,0,0,0,0,0,5.9019,5.9022,5.9148,5.9149,5.9149,5.9201,5.9201,5.9202,5.9169,5.9167,5.9165,5.9163,5.9215,5.9218,5.9221,0,0,0,0,0,0,0,0,0,0,0,0,0,5.9074,5.9023,5.9148,5.9139,5.9139,5.9201,5.9201,5.9202,5.9169,5.9167,5.9164,5.9162,5.9214,5.9218,5.9222,5.9295,0,0,5.9235,5.9237,0,0,0,0,0,0,0,0,5.9071,5.9079,5.914,5.914,5.914,5.9176,5.9175,5.9233,5.917,5.9158,5.9164,5.9161,5.9204,5.9209,5.9224,5.9297,5.93,5.9235,5.9238,5.924,5.9241,0,0,0,0,0,0,0,5.9067,5.9076,5.9169,5.9141,5.9141,5.9133,5.9138,5.9186,5.9193,5.9158,5.9156,5.9163,5.9204,5.922,5.9225,5.93,5.9235,5.9239,5.9242,5.9243,5.9441,5.9443,0,0,0,0,0,0,5.9064,5.9073,5.9167,5.917,5.9099,5.9137,5.9143,5.9166,5.9193,5.9194,5.9165,5.9161,5.9214,5.922,5.9227,5.9317,5.924,5.9244,5.9246,5.9438,5.9441,5.9444,0,0,0,0,0,0,5.9061,5.9073,5.9165,5.9121,5.9132,5.9141,5.9169,5.9169,5.9185,5.9198,5.9199,5.918,5.9212,5.9221,5.9279,5.9318,5.9246,5.9249,5.9435,5.9439,5.9443,5.9496,0,0,0,0,0,0,5.9058,5.9072,5.9099,5.9122,5.9135,5.9217,5.9171,5.9171,5.9193,5.9188,5.9212,5.9214,5.9211,5.9273,5.9284,5.9323,5.9253,5.9431,5.9437,5.9441,5.9491,5.9501,5.9511,0,0,0,0,0,5.9053,5.9111,5.9101,5.9112,5.9169,5.9219,5.9226,5.9223,5.9196,5.9224,5.9233,5.9213,5.9312,5.9279,5.9291,5.9332,5.9429,5.9435,5.9441,5.9487,5.9499,5.951,0,0,0,0,0,0,5.9091,5.9114,5.9103,5.9169,5.9193,5.9213,5.9248,5.9236,5.9266,5.9261,5.9254,5.926,5.9322,5.9332,5.9296,5.9406,5.9366,5.9375,5.9397,5.9409,5.9419,5.9416,5.9256,0,0,0,0,0,5.9107,5.9146,5.9163,5.922,5.9233,5.9239,5.926,5.9256,5.9279,5.9289,5.9301,5.9325,5.9362,5.9386,5.942,5.9492,5.9498,5.9526,5.9536,5.9544,5.9552,5.9594,5.9608,5.9464,5.9464,5.9464,0,0,5.914,5.9158,5.9182,5.9229,5.9246,5.9287,5.9247,5.9291,5.9322,5.9295,5.9353,5.9363,5.9389,5.9456,5.9486,5.9466,5.9593,5.9552,5.9558,5.9561,5.9602,5.9616,5.9628,5.9468,5.9467,5.9467,0,0,5.9223,5.9239,5.929,5.931,5.9338,5.9342,5.9354,5.9378,5.9384,5.9442,5.9424,5.946,5.9522,5.9543,5.9561,5.9656,5.964,5.9667,5.9719,5.976,5.9772,5.9782,5.9818,5.9831,5.9675,5.9675,5.9675,0,5.9261,5.9322,5.9318,5.9365,5.9387,5.9367,5.942,5.9438,5.9475,5.9491,5.9469,5.955,5.9565,5.9639,5.9662,5.9677,5.9693,5.9665,5.977,5.978,5.979,5.9825,5.9838,5.9678,5.9678,5.9677,5.9677,0,5.9369,5.9412,5.945,5.949,5.9516,5.9565,5.9569,5.9596,5.959,5.9597,5.9658,5.9677,5.9716,5.9733,5.9726,5.9806,5.9794,5.9771,5.9731,5.9807,5.984,5.9853,5.9683,5.9682,5.9681,5.968,0,0,5.9476,5.9514,5.9529,5.9548,5.9579,5.9612,5.9662,5.9702,5.9727,5.9753,5.9796,5.9851,5.9832,5.9853,5.9849,5.9885,5.9963,5.9858,5.9859,5.988,6.0056,6.0075,6.009,5.9953,5.9955,5.9957,6.0055,0,5.9562,5.965,5.965,5.9731,5.9773,5.9755,5.9799,5.9823,5.9831,5.9868,5.9877,5.9917,5.9887,5.99,5.9935,5.9946,5.9999,5.9939,5.9994,5.9996,5.999,6.0107,6.0126,6.0218,6.0068,6.007,6.0071,0,5.9675,5.9709,5.9795,5.9824,5.9841,5.988,5.9919,5.9953,5.9981,5.9985,6.0011,6.0002,6.0054,6.0012,6.0085,6.0044,6.0067,6.0076,6.0079,6.0086,6.0039,6.0119,6.0246,6.0261,6.0091,6.0089,6.0088,0,5.9748,5.9814,5.9876,5.9892,5.9926,5.9955,5.997,5.9996,6.0021,6.0055,6.0072,6.011,6.0132,6.0162,6.0165,6.0133,6.0239,6.0197,6.0245,6.0245,6.0269,6.0268,6.0404,6.028,6.028,6.0279,6.0279,0,5.9846,5.99,5.991,5.9947,6.0009,6.0008,6.0068,6.0081,6.0105,6.0146,6.0132,6.017,6.017,6.021,6.0212,6.0273,6.0282,6.0288,6.0288,6.0291,6.029,6.0306,6.0301,6.0283,6.0282,6.0282,6.0281,0,5.9938,5.9946,6.0012,6.004,6.0049,6.0093,6.0117,6.0154,6.0162,6.0214,6.0226,6.0239,6.0285,6.0291,6.0343,6.0345,6.0421,6.0413,6.0412,6.0412,6.0461,6.0457,6.0614,6.0636,6.0495,6.0496,6.0498,0,6.0001,6.0043,6.0077,6.0104,6.0122,6.0165,6.0192,6.0193,6.0221,6.0259,6.0292,6.0337,6.0374,6.0449,6.0463,6.0504,6.0499,6.0551,6.0505,6.0507,6.0503,6.0502,6.0507,6.0561,6.0562,6.0563,6.0564,0,6.0114,6.0117,6.0156,6.0199,6.0231,6.0264,6.0295,6.0318,6.0323,6.0356,6.0405,6.0433,6.0489,6.0536,6.0577,6.0593,6.0581,6.0579,6.0593,6.0597,6.0596,6.06,6.0439,6.0575,6.0574,6.0573,6.0573,6.0572,6.0195,6.0233,6.0264,6.0309,6.0333,6.0363,6.0401,6.0415,6.0455,6.0503,6.05,6.0555,6.0584,6.0639,6.0659,6.0701,6.0684,6.0703,6.0709,6.0714,6.0721,6.0588,6.0708,6.0708,6.0708,6.0708,6.0707,0,6.031,6.0329,6.0371,6.0417,6.0453,6.0439,6.0473,6.0505,6.0553,6.0582,6.062,6.0677,6.0722,6.0741,6.0786,6.0817,6.0813,6.0829,6.0828,6.0832,6.0732,6.0717,6.0832,6.0832,6.0832,6.0832,6.0832,6.0832,6.0374,6.0439,6.0446,6.0523,6.0542,6.0596,6.0617,6.0646,6.067,6.0735,6.0773,6.0786,6.0811,6.0859,6.09,6.0905,6.0923,6.0943,6.0945,6.0851,6.0839,6.0827,6.0813,6.0946,6.0946,6.1042,6.1043,6.1043]}]]